Wind_Speed
38 37 35 34 31 29 28 27 27 27 28 28 31 33 33 32 32 32 31 31 30 29 28 26 24 22 21 20 18 15 13 10 7 6 4 3 2 1 2 3 5 6 8 9 10 11 11 11 11 11 10 10 10 10 11 11 11 12 12 12 13 13 13 14 14 14 15 15 16
38 37 35 33 30 29 28 28 27 27 28 29 32 34 34 33 33 33 32 31 30 29 28 26 24 23 21 20 18 15 12 9 7 5 4 3 2 1 2 4 5 7 9 10 11 12 12 12 12 12 11 11 11 11 10 10 11 11 11 12 12 13 13 14 14 14 15 15 16
37 36 34 32 30 29 29 29 29 29 30 31 33 34 34 34 33 33 32 31 29 28 27 26 25 23 22 20 17 14 11 8 6 5 3 2 2 1 3 4 6 8 9 11 12 13 13 13 13 13 13 12 12 11 11 10 10 10 11 11 12 12 13 13 14 14 15 16 16
37 36 35 33 31 30 31 31 32 32 33 33 35 35 34 34 33 32 31 30 28 28 27 26 25 24 22 20 16 13 10 7 6 4 3 2 1 2 3 5 7 9 10 12 13 14 14 15 15 15 15 14 14 13 12 11 10 10 10 11 12 13 13 14 14 15 15 16 16
36 35 34 33 31 31 32 34 34 35 35 35 35 35 34 33 32 31 29 28 27 27 27 26 26 25 22 19 15 11 9 7 5 4 3 2 1 2 4 5 7 9 11 12 14 15 16 16 17 17 17 16 15 14 13 11 11 10 10 11 12 13 14 14 15 15 16 16 17
34 33 33 32 31 32 33 35 35 36 35 34 34 34 33 33 31 30 28 27 28 28 28 27 27 25 21 17 13 10 8 6 5 4 2 1 1 2 4 6 8 9 11 13 14 16 17 18 19 19 19 18 17 15 14 12 11 11 11 12 12 13 14 15 15 16 17 17 18
32 32 32 32 31 32 34 35 35 34 32 31 31 31 31 32 30 29 28 28 29 30 29 28 26 23 19 15 12 9 7 6 5 3 2 1 1 3 5 6 8 10 11 13 15 16 18 19 20 21 20 19 18 16 14 13 12 11 12 13 13 14 15 15 16 17 17 18 18
31 31 31 30 30 31 32 33 32 30 28 27 27 27 28 31 29 29 30 31 31 31 30 27 24 21 17 14 11 9 7 6 5 3 2 1 2 4 5 7 8 10 11 13 15 17 19 20 21 22 21 20 18 16 14 13 12 12 13 14 14 15 15 16 16 17 17 18 18
31 31 31 30 29 29 30 30 28 27 26 25 26 26 28 30 31 32 32 33 33 31 28 25 22 18 15 12 10 9 7 6 4 3 2 1 3 4 6 7 9 10 12 13 15 17 19 21 22 22 22 21 19 17 15 13 13 13 13 14 15 15 15 15 16 16 17 18 18
33 33 32 32 31 30 29 29 28 28 28 28 28 29 31 33 34 34 34 34 32 29 26 23 20 16 14 11 10 8 7 5 4 3 2 2 3 5 6 8 9 10 12 13 15 17 19 21 22 23 22 21 19 17 15 14 13 13 14 14 15 15 15 15 15 15 16 17 18
34 34 34 33 33 32 31 31 31 31 31 31 32 33 34 35 35 35 34 33 30 27 23 20 18 15 13 11 9 8 6 5 4 3 3 3 4 6 7 8 10 11 12 14 15 17 19 21 22 23 22 20 18 16 15 14 14 14 14 15 15 15 14 14 14 15 16 17 18
34 34 34 35 34 33 32 32 33 33 34 34 35 36 37 36 36 35 33 31 28 25 21 19 16 14 12 11 9 8 6 5 4 3 4 4 6 7 8 9 10 11 12 14 16 17 19 21 22 22 22 20 18 16 15 14 14 14 14 14 14 14 13 13 14 15 16 16 17
34 34 35 35 35 34 33 34 35 35 35 36 37 37 36 35 34 33 31 29 26 23 20 17 14 13 11 10 9 7 6 5 5 4 5 6 7 8 9 10 11 12 13 14 16 17 19 21 22 22 21 20 18 16 15 14 13 13 13 13 13 13 13 13 14 14 15 15 16
34 35 35 36 36 35 35 36 36 36 36 36 36 36 35 34 32 31 30 28 25 22 19 16 14 12 11 10 9 8 7 6 5 6 6 7 8 9 10 11 11 12 13 14 16 17 19 21 22 22 21 19 18 16 15 14 13 13 13 13 13 13 13 13 14 14 15 15 16
35 36 37 38 37 37 37 37 37 36 36 35 35 34 33 32 31 30 29 27 24 21 18 15 14 12 11 10 9 8 7 7 7 7 7 8 9 10 10 11 11 12 13 14 16 17 19 20 21 21 21 19 18 16 15 14 13 13 13 13 13 13 14 14 15 15 15 16 16
36 37 38 38 38 38 38 37 36 35 35 34 34 33 32 31 31 30 28 26 23 20 17 15 13 12 11 10 9 9 8 8 8 8 8 9 10 11 11 11 12 12 13 14 16 17 19 20 21 21 20 19 18 17 15 14 14 13 13 14 14 15 15 16 16 17 17 18 18
38 37 38 38 38 38 37 35 35 34 34 34 33 33 32 31 31 30 28 26 22 19 16 14 13 12 11 10 10 9 9 9 9 9 9 10 11 11 11 11 12 12 13 14 16 17 19 20 21 21 20 19 18 17 15 14 14 14 15 15 16 17 17 18 18 18 19 20 20
39 38 38 38 38 37 36 35 35 34 34 34 34 33 32 31 31 29 27 25 21 18 15 14 13 12 11 11 10 10 10 10 10 10 10 11 11 11 11 12 12 12 13 14 16 17 19 20 21 21 20 19 18 16 15 15 15 16 16 17 17 18 19 19 20 20 21 21 22
39 39 39 38 37 37 36 36 35 35 35 35 33 32 32 32 30 29 26 23 20 17 15 14 13 12 12 11 11 10 10 10 10 11 11 11 11 12 12 12 12 13 13 14 16 17 19 20 21 20 19 18 17 16 16 16 16 17 17 18 19 19 20 20 20 21 21 22 22
40 40 40 39 38 37 36 36 36 36 35 34 33 32 32 31 29 27 25 22 19 17 15 14 13 13 12 12 11 11 11 11 11 12 12 12 12 12 12 12 12 13 13 15 16 17 19 20 20 20 19 18 17 17 17 17 17 18 19 19 20 20 20 21 21 21 21 22 22
40 40 40 40 39 38 37 37 37 36 35 34 32 31 31 30 28 25 23 20 19 17 16 14 14 13 13 12 12 12 12 12 12 12 12 13 13 13 13 13 13 13 14 15 16 17 19 20 20 20 19 18 18 17 18 18 18 19 19 20 20 20 21 21 21 21 22 22 22
40 40 40 40 39 38 38 37 37 36 35 33 32 30 29 28 27 24 22 20 18 17 16 15 14 14 13 13 13 12 12 12 13 13 13 13 13 13 13 13 13 13 14 15 16 17 18 19 19 19 19 18 18 19 19 19 19 19 20 20 21 21 21 21 21 22 22 22 22
39 40 40 40 40 39 38 38 36 35 34 32 31 29 29 28 26 24 22 20 18 17 16 15 15 14 14 13 13 13 13 13 13 13 13 13 13 13 14 13 13 13 14 14 16 17 18 18 19 19 19 19 19 19 19 19 19 20 20 21 21 21 21 21 22 22 22 21 20
39 39 39 39 40 40 39 37 36 34 33 32 30 29 28 27 26 24 22 20 19 17 16 16 16 15 15 14 14 14 14 14 14 14 14 14 14 14 14 14 13 13 13 14 15 17 18 18 19 19 19 19 19 19 19 19 19 20 20 21 21 21 21 21 21 21 21 20 18
39 39 39 39 40 40 39 37 35 34 32 31 30 28 28 28 26 24 22 20 19 18 17 17 16 16 15 15 15 15 14 14 15 15 14 14 14 15 15 14 13 13 14 14 15 17 18 19 19 20 20 19 19 19 19 19 20 20 20 21 21 21 21 21 21 21 21 19 16
38 38 38 38 39 39 38 36 34 33 31 30 29 28 28 28 26 24 22 20 19 18 18 17 17 16 16 16 16 15 15 15 15 15 15 15 15 15 15 14 13 13 14 14 16 17 18 19 20 20 20 19 19 19 19 19 20 20 20 20 21 21 21 21 21 21 20 19 15
39 38 38 38 39 38 37 35 33 32 31 30 29 29 29 29 26 24 22 21 20 19 18 18 17 17 17 16 16 16 15 15 15 15 15 15 15 15 15 14 13 13 14 15 16 17 19 20 20 21 20 20 19 19 19 20 20 20 20 20 20 21 21 21 21 21 21 19 15
39 38 38 37 37 36 35 33 32 31 30 30 30 30 30 30 27 24 22 21 21 20 19 18 18 17 17 17 16 16 15 15 15 14 14 15 15 15 15 14 13 13 14 15 16 18 19 20 21 21 20 20 19 19 20 20 20 20 20 20 20 21 21 21 21 21 21 19 16
40 39 38 37 36 35 34 32 31 30 30 31 31 32 32 30 27 25 23 22 21 20 19 18 18 18 17 17 16 16 16 15 15 14 14 15 15 15 15 14 13 14 14 15 17 18 19 20 21 20 20 20 20 20 20 20 20 20 20 21 21 21 21 21 22 22 21 20 17
40 39 38 37 36 34 32 31 30 30 30 31 33 34 34 31 28 25 24 23 22 20 19 18 18 18 17 17 16 16 15 15 15 14 15 15 15 15 14 14 14 14 15 16 17 18 20 20 21 21 20 20 20 20 20 20 21 21 21 21 21 22 22 22 22 22 21 20 19
41 40 39 37 36 33 31 29 28 29 31 33 35 36 35 32 29 26 24 23 21 20 19 18 18 18 17 17 16 16 15 15 15 15 15 15 15 15 14 14 14 14 15 16 17 19 20 21 21 21 21 21 21 20 20 21 21 21 21 21 22 22 22 23 22 22 21 20 19
42 41 39 38 35 31 28 26 27 29 32 34 36 37 36 32 29 26 24 22 21 20 19 19 18 18 17 17 16 16 15 15 14 14 15 15 15 15 14 14 15 15 16 17 18 19 21 21 22 21 21 21 21 21 21 20 21 21 21 22 22 22 22 22 22 21 21 20 19
43 42 40 38 33 29 26 25 27 30 33 36 38 38 36 32 29 27 25 23 22 21 20 19 18 18 17 17 16 16 15 14 13 14 14 15 15 15 14 15 15 16 17 18 19 20 21 22 22 22 22 21 21 21 21 20 21 21 21 22 22 22 22 21 21 21 20 20 20
44 43 40 36 30 26 25 26 29 32 35 38 39 39 36 33 30 28 26 24 22 21 19 19 18 17 17 17 16 15 14 13 13 13 14 15 15 14 14 15 16 16 17 18 19 20 21 22 22 22 22 21 21 21 21 21 21 21 21 21 21 21 21 20 20 20 20 20 20
45 43 39 33 27 24 25 27 31 34 37 40 40 39 36 33 31 28 26 24 22 21 20 19 18 18 17 16 16 15 14 13 13 13 14 15 14 14 14 15 16 17 18 19 20 21 21 22 22 22 21 21 21 20 20 21 21 21 21 21 20 20 20 20 20 20 20 20 20
45 41 35 29 25 24 26 29 33 37 40 41 41 39 37 34 31 28 26 24 22 21 20 19 19 18 18 17 16 15 14 13 13 13 14 14 14 14 14 15 17 18 19 20 20 21 21 21 21 21 21 21 20 20 20 20 20 20 20 20 20 20 20 20 20 20 20 20 20
43 38 31 26 25 26 28 32 36 39 42 42 41 40 37 34 32 29 27 25 23 22 21 20 19 19 18 17 15 14 13 12 12 13 14 14 15 14 15 16 17 19 19 20 20 21 21 21 21 21 20 20 19 19 19 19 19 19 19 19 19 19 19 19 19 20 20 20 19
40 33 27 25 25 27 30 35 39 41 43 43 41 39 37 34 32 30 27 25 24 23 22 21 19 18 17 16 14 13 12 12 12 12 13 14 15 15 15 16 18 19 20 20 21 21 21 21 20 20 19 18 18 18 18 18 18 19 19 19 19 19 19 19 19 19 19 19 19
36 29 25 24 25 28 32 37 40 42 43 42 41 39 37 35 32 30 27 25 24 23 22 20 19 18 16 15 14 13 12 12 11 12 13 14 15 16 16 17 18 19 20 20 21 21 21 21 20 19 18 17 16 16 17 17 18 18 19 19 19 19 19 19 19 19 19 18 18
31 26 23 23 24 28 32 37 41 42 42 42 41 39 37 35 33 30 28 26 24 22 21 20 19 17 16 15 14 13 12 11 11 12 13 14 15 16 17 17 18 18 20 20 21 21 21 21 19 18 16 16 16 16 16 17 17 18 18 19 19 18 18 18 18 18 18 18 17
28 24 22 23 24 27 32 37 40 42 42 41 40 39 37 35 33 30 28 26 24 23 21 20 19 17 16 14 13 12 11 11 11 12 13 14 15 16 17 17 17 18 19 20 21 21 21 20 19 17 15 15 15 16 16 17 17 18 18 18 18 18 18 18 18 18 18 17 16
Wind_Direction
185 186 187 185 184 183 182 182 183 186 189 191 186 181 179 177 176 175 175 175 175 175 176 177 178 179 180 181 182 181 182 187 196 205 209 207 196 151 68 46 36 29 24 20 16 11 7 3 357 351 344 337 330 322 314 306 298 292 286 281 276 273 272 273 273 274 275 276 276
186 189 191 190 188 186 186 187 188 191 193 192 187 182 179 177 176 175 175 176 176 177 177 178 179 181 182 183 183 183 186 192 199 202 201 192 172 106 56 38 29 24 21 18 15 12 9 5 1 355 350 343 336 329 321 312 303 295 287 281 275 273 272 272 273 273 274 275 275
186 188 189 190 190 190 190 189 191 193 193 191 185 181 178 177 176 175 176 177 178 178 178 178 181 184 185 185 184 185 189 195 197 195 188 172 141 82 47 30 23 19 17 15 13 12 9 6 2 358 353 348 342 337 329 319 309 298 288 280 276 274 272 272 272 272 272 273 274
184 185 186 189 192 192 192 191 191 191 190 186 182 179 177 177 176 176 177 179 180 180 181 183 185 186 187 185 184 185 189 193 193 188 178 162 125 62 34 24 17 14 12 11 10 9 8 5 2 359 355 351 346 341 334 325 314 301 290 281 276 274 272 271 271 271 271 272 272
186 188 190 194 196 197 195 192 190 188 184 181 178 177 177 177 177 178 179 181 182 183 187 190 189 187 185 183 183 185 187 187 186 182 174 159 105 36 22 15 11 9 8 7 6 6 5 4 2 359 356 352 348 343 336 327 315 302 289 280 275 272 271 270 269 270 270 271 271
191 192 195 200 198 195 191 188 184 181 177 176 175 176 177 178 179 181 183 185 186 188 190 190 187 184 183 182 184 185 184 181 180 178 175 165 33 13 8 5 3 3 3 2 2 2 2 2 0 358 355 352 347 342 336 327 315 300 287 277 272 270 269 268 269 270 271 271 271
194 193 193 196 193 187 183 180 177 174 173 173 175 177 179 180 183 186 188 191 191 190 189 187 186 184 183 184 185 184 181 178 178 179 182 204 349 355 355 355 355 355 355 356 357 358 359 359 358 357 354 350 346 341 334 324 312 299 286 275 272 270 269 268 269 270 272 273 273
194 193 192 192 187 181 177 175 174 174 175 178 181 183 184 184 189 193 193 191 190 189 188 186 185 185 187 187 185 182 179 178 179 182 195 263 331 341 344 345 345 346 347 350 352 354 355 356 356 355 352 349 344 338 331 321 310 298 287 279 275 273 271 270 270 272 273 274 275
192 190 190 190 187 184 181 181 183 185 188 190 192 193 191 189 190 191 190 188 189 188 187 185 186 187 189 188 184 181 179 179 183 191 214 284 322 331 334 336 336 338 341 345 348 351 352 353 353 352 350 346 341 336 328 320 309 299 290 284 279 277 276 275 274 274 275 276 277
189 188 189 191 193 193 193 195 197 199 200 201 200 198 196 193 190 189 189 189 189 187 186 186 188 189 188 185 182 180 181 184 191 206 240 288 313 321 325 327 329 332 336 341 345 347 349 350 350 349 347 343 339 333 326 318 309 300 293 288 283 280 280 280 279 278 278 279 279
188 189 192 196 200 201 201 203 204 204 203 201 199 197 195 193 191 191 191 191 188 187 187 189 190 189 186 183 181 182 184 190 201 223 258 289 305 313 318 321 324 329 334 339 342 344 346 347 347 346 344 341 336 331 325 317 309 301 294 289 285 283 282 284 283 282 281 280 281
190 192 197 202 207 207 205 205 204 202 199 196 193 192 191 191 191 191 192 191 188 188 190 192 191 188 184 182 182 184 191 200 215 239 266 287 299 307 312 316 321 327 332 337 339 341 343 344 344 343 342 339 335 330 324 317 309 302 296 290 286 283 283 284 283 282 281 281 282
193 194 198 205 210 210 206 204 200 195 191 188 187 187 188 189 191 192 192 190 190 190 191 192 190 188 185 184 186 190 198 210 228 249 268 284 295 302 307 312 318 324 330 334 337 338 340 341 341 341 340 339 335 330 324 317 310 302 296 291 286 282 280 279 280 279 279 280 281
193 195 198 202 206 205 201 197 192 187 184 183 184 185 186 188 191 192 192 191 191 192 192 191 189 188 187 189 192 198 207 220 236 253 268 281 290 297 303 309 316 322 328 332 334 336 337 338 339 339 339 338 335 331 325 318 310 302 295 289 283 278 275 274 274 275 277 278 279
190 192 194 195 194 191 187 185 182 181 181 181 183 185 187 189 191 193 193 192 193 193 193 190 189 189 191 194 199 206 215 228 241 254 268 279 287 294 300 306 313 320 325 329 331 333 334 336 337 338 338 337 335 331 326 319 311 301 293 285 280 275 272 271 272 273 275 276 277
189 189 188 186 182 180 179 178 178 179 180 182 185 187 189 191 193 194 194 194 194 194 194 192 191 192 194 199 205 213 222 233 245 257 268 277 284 291 297 303 310 317 322 326 329 331 333 335 336 337 337 336 334 331 326 319 311 302 292 285 278 274 272 271 271 273 274 275 276
190 188 185 182 180 179 179 179 180 180 182 184 187 189 192 194 194 195 195 195 195 195 195 195 195 197 199 204 210 218 228 238 248 258 268 276 282 288 294 301 307 314 319 324 326 329 331 333 335 336 336 335 333 330 325 318 309 301 293 286 280 276 274 274 274 275 275 276 277
188 187 186 183 182 182 182 182 182 183 185 187 190 192 195 197 196 195 195 196 197 198 198 198 199 201 204 209 216 223 232 241 250 259 267 274 280 286 292 298 305 312 317 321 325 328 331 333 334 335 335 334 332 328 322 315 307 300 294 288 284 281 279 278 279 279 280 280 281
188 187 185 184 183 183 184 184 185 186 188 190 193 195 198 198 197 195 195 197 200 201 202 202 203 205 209 215 221 228 236 244 252 260 266 272 278 283 290 296 302 309 314 319 323 327 329 331 333 334 334 333 330 324 318 312 306 300 296 291 288 286 284 284 285 286 287 287 288
188 186 184 183 183 184 185 186 187 188 190 192 195 198 198 198 197 196 196 199 202 204 205 206 207 209 213 219 224 231 238 246 253 259 264 270 276 281 287 294 300 307 313 317 322 325 328 331 332 333 333 330 326 320 315 311 306 302 298 295 292 291 290 291 292 293 294 294 294
187 185 183 182 182 183 185 187 188 190 192 194 198 199 199 197 197 198 200 203 205 206 207 208 210 213 218 222 228 234 241 247 252 258 263 269 274 280 285 291 298 305 311 316 321 325 328 330 332 332 330 327 323 318 314 311 307 303 301 299 297 297 297 297 298 298 298 298 298
187 184 182 181 181 183 185 187 189 191 194 197 199 202 203 199 199 201 204 207 208 208 208 210 214 218 222 226 232 237 242 247 252 257 263 268 273 278 283 289 296 303 310 316 321 325 328 330 330 329 327 324 321 318 315 311 308 306 304 303 302 302 302 302 302 301 302 303 303
185 183 180 180 181 183 185 188 191 194 196 199 203 205 205 203 202 204 207 209 210 209 210 213 217 221 225 229 234 238 242 247 251 257 262 267 272 276 282 287 294 302 310 316 321 326 329 329 328 327 325 323 320 318 315 312 310 308 307 306 305 305 304 304 304 304 305 307 307
183 181 179 178 181 183 186 189 192 196 200 202 204 205 206 206 206 207 209 210 210 210 212 215 219 223 227 231 235 239 242 246 251 256 261 266 270 275 280 286 294 302 309 315 321 325 328 328 327 326 325 324 321 319 316 314 312 310 308 307 306 306 305 305 305 307 308 310 309
181 179 178 178 181 183 187 190 194 198 201 204 205 206 207 208 209 210 210 210 210 211 214 217 221 225 229 233 236 239 243 247 251 256 260 265 270 274 280 287 294 302 308 315 321 325 327 328 327 327 327 325 323 321 318 316 313 310 308 307 306 305 305 305 306 308 310 311 309
180 179 178 179 182 184 188 191 196 200 202 203 205 207 209 210 211 211 210 210 210 212 215 219 223 226 230 233 236 239 243 247 251 255 260 264 270 275 281 288 295 302 308 315 321 324 326 327 328 328 327 326 324 322 320 317 313 311 308 307 306 305 305 305 307 308 310 311 308
179 178 179 180 183 186 188 192 196 200 203 204 206 209 211 212 212 211 210 210 211 213 216 220 224 228 231 234 236 239 242 246 251 255 260 265 271 276 282 289 295 302 309 315 320 324 325 327 327 328 327 326 324 322 319 316 313 310 308 306 305 305 305 306 307 309 311 310 306
179 179 180 182 184 187 190 193 197 201 204 206 208 211 213 213 212 211 210 211 212 214 217 220 224 228 231 234 237 239 243 247 251 255 261 266 272 277 283 290 296 302 309 315 320 323 324 326 326 327 327 325 323 321 318 315 312 310 307 306 305 305 306 306 308 309 310 309 304
179 179 180 183 185 187 190 194 198 203 206 208 210 213 214 214 213 211 211 211 212 215 217 221 224 228 231 234 237 240 243 246 250 255 261 267 273 279 284 291 297 303 309 315 319 321 323 324 325 326 326 325 323 320 317 314 311 309 307 306 305 305 306 307 308 309 309 307 302
179 179 181 183 185 188 191 196 201 205 208 210 213 214 215 215 213 212 211 212 213 215 218 222 225 228 231 234 237 240 243 246 251 256 262 268 274 280 286 292 298 304 309 315 318 320 322 323 325 325 325 324 322 319 316 313 311 308 307 306 305 305 305 306 307 307 307 304 300
179 179 181 183 185 189 193 199 204 207 210 212 214 215 216 215 214 213 212 213 214 216 219 222 225 227 231 235 238 240 243 247 252 257 264 270 275 281 287 293 299 305 309 314 317 319 321 323 324 324 324 323 321 318 315 312 309 307 306 305 305 305 305 305 306 306 304 302 297
179 180 181 183 186 191 196 202 206 209 211 213 215 215 216 216 215 214 213 214 215 216 218 221 223 226 230 234 237 240 244 247 251 258 265 271 277 282 288 294 300 304 308 313 316 319 320 322 323 323 323 322 319 317 314 311 308 307 305 305 304 304 304 304 304 303 301 298 294
179 180 183 185 189 194 199 203 207 210 212 214 215 216 216 216 216 215 214 214 215 217 218 221 223 226 230 234 237 240 242 245 250 257 266 273 278 284 290 296 300 304 308 312 316 318 320 321 322 322 321 320 318 315 312 309 307 306 305 304 304 303 303 302 302 300 298 295 292
180 182 185 188 191 196 201 205 209 212 213 214 215 216 216 217 216 215 215 215 216 217 219 221 224 228 231 235 237 238 240 244 250 258 266 273 279 285 291 298 300 303 307 312 315 317 319 320 321 321 320 319 316 314 311 308 306 305 304 303 302 302 301 300 299 298 296 293 291
182 184 186 189 193 197 203 208 211 213 214 214 214 215 217 217 217 217 216 215 216 216 218 220 224 227 230 233 235 236 239 244 251 260 268 274 280 285 292 298 300 303 307 311 314 316 318 319 319 320 319 318 315 312 310 307 305 303 302 302 301 301 300 299 298 297 296 294 292
183 185 187 191 194 199 205 210 212 213 213 214 214 215 217 218 218 218 217 217 216 216 217 219 222 225 227 229 232 234 237 243 251 260 268 275 281 286 292 298 301 304 307 310 312 314 316 317 318 319 319 317 314 311 308 306 304 302 301 301 300 300 300 299 299 298 298 297 295
185 186 188 191 195 200 207 212 213 214 214 214 215 216 217 218 218 218 218 218 217 217 218 220 222 224 227 229 230 232 236 242 250 259 268 276 282 288 293 299 302 304 305 308 310 312 314 316 317 318 318 316 313 310 307 304 302 302 302 301 301 301 301 301 301 300 300 300 298
185 186 189 191 196 202 208 212 214 214 214 215 216 217 218 218 218 218 218 218 218 218 219 221 222 224 227 229 230 231 235 241 250 259 269 277 285 291 295 298 301 302 304 306 308 310 313 315 317 318 318 315 312 308 304 302 302 302 302 303 303 303 303 304 304 303 303 302 300
184 186 189 192 198 204 209 212 214 214 215 215 216 217 218 219 219 219 218 219 219 220 221 221 222 224 226 227 227 229 233 240 251 262 272 280 287 292 295 297 299 300 301 303 306 309 311 314 316 317 317 314 310 305 302 301 302 302 303 304 304 305 305 306 306 306 305 303 300
183 186 190 194 201 208 212 213 214 215 215 216 217 217 218 219 219 219 219 219 219 219 220 221 222 223 224 224 225 227 232 241 253 266 276 283 288 292 295 297 298 298 300 302 305 308 310 312 315 316 315 311 307 304 302 302 303 304 305 305 306 307 308 308 308 308 306 304 301
183 187 191 196 205 212 215 215 215 215 216 217 218 219 220 220 220 219 219 218 217 217 218 219 220 222 222 222 223 227 234 243 255 267 276 282 286 289 292 294 296 297 298 300 303 305 308 310 312 314 312 309 305 303 303 303 305 306 307 308 309 309 310 310 310 309 308 305 302
Height
1457 1458 1459 1461 1463 1466 1468 1470 1471 1473 1474 1476 1477 1478 1479 1479 1480 1481 1482 1482 1483 1484 1484 1485 1486 1487 1488 1488 1489 1490 1491 1492 1493 1494 1494 1495 1496 1496 1497 1497 1498 1498 1498 1498 1498 1498 1498 1498 1498 1497 1497 1497 1496 1496 1496 1496 1495 1495 1495 1495 1495 1495 1495 1494 1494 1494 1494 1494 1494
1454 1456 1458 1460 1463 1465 1467 1469 1471 1472 1474 1475 1476 1476 1477 1478 1479 1480 1481 1482 1482 1483 1484 1484 1485 1486 1486 1487 1489 1489 1491 1492 1492 1493 1494 1494 1495 1495 1496 1496 1497 1497 1497 1497 1497 1497 1497 1497 1497 1496 1496 1496 1495 1495 1495 1495 1494 1494 1494 1494 1494 1494 1494 1493 1493 1493 1493 1493 1493
1454 1455 1457 1459 1461 1464 1466 1468 1469 1471 1472 1474 1474 1475 1476 1477 1478 1479 1480 1481 1481 1482 1483 1483 1484 1485 1485 1486 1488 1489 1490 1491 1491 1492 1493 1494 1494 1495 1495 1496 1496 1496 1496 1496 1496 1496 1496 1496 1496 1495 1495 1495 1494 1494 1494 1494 1494 1493 1493 1493 1493 1492 1492 1492 1492 1492 1491 1491 1491
1453 1455 1456 1458 1459 1462 1464 1466 1467 1469 1470 1472 1473 1474 1475 1477 1478 1479 1479 1480 1481 1481 1482 1482 1483 1484 1484 1486 1487 1488 1489 1490 1491 1491 1492 1493 1494 1494 1494 1495 1495 1495 1495 1495 1496 1495 1495 1495 1495 1494 1494 1494 1493 1493 1493 1492 1492 1492 1492 1491 1491 1491 1491 1491 1490 1490 1490 1490 1489
1453 1455 1456 1457 1459 1461 1463 1464 1466 1467 1468 1470 1471 1473 1474 1476 1477 1477 1478 1479 1480 1480 1480 1481 1481 1482 1484 1485 1486 1487 1488 1489 1489 1491 1491 1492 1493 1494 1494 1494 1494 1494 1495 1495 1495 1495 1494 1494 1494 1493 1493 1492 1492 1492 1491 1491 1491 1490 1490 1490 1490 1490 1489 1489 1489 1489 1489 1488 1488
1453 1455 1456 1457 1459 1461 1462 1464 1465 1466 1468 1469 1471 1472 1474 1474 1475 1476 1477 1478 1478 1479 1479 1480 1480 1481 1483 1484 1485 1486 1487 1488 1489 1490 1491 1491 1492 1493 1493 1493 1494 1494 1494 1494 1494 1494 1494 1493 1492 1492 1491 1491 1490 1490 1490 1489 1489 1489 1489 1489 1489 1488 1488 1488 1487 1487 1487 1486 1486
1453 1455 1456 1457 1459 1460 1462 1464 1465 1467 1468 1469 1470 1471 1472 1473 1474 1474 1475 1476 1476 1477 1478 1479 1479 1480 1482 1483 1484 1485 1486 1487 1488 1489 1490 1490 1491 1492 1492 1492 1493 1493 1493 1494 1493 1493 1492 1492 1491 1490 1490 1489 1489 1489 1489 1488 1488 1488 1487 1487 1487 1487 1486 1486 1486 1486 1485 1485 1484
1452 1454 1456 1457 1459 1461 1462 1464 1465 1467 1468 1469 1470 1471 1472 1472 1473 1473 1474 1474 1474 1475 1476 1477 1479 1480 1481 1482 1483 1484 1485 1486 1487 1488 1489 1489 1490 1491 1491 1492 1492 1492 1493 1493 1492 1492 1491 1490 1490 1489 1489 1488 1488 1487 1487 1487 1486 1486 1486 1485 1485 1485 1485 1485 1484 1484 1484 1483 1483
1451 1453 1455 1457 1459 1461 1463 1464 1465 1466 1467 1468 1469 1470 1471 1471 1471 1472 1472 1473 1473 1474 1475 1476 1478 1479 1480 1481 1482 1483 1484 1485 1486 1487 1488 1489 1489 1489 1490 1491 1491 1491 1492 1492 1491 1491 1490 1489 1489 1488 1487 1487 1486 1486 1486 1485 1485 1484 1484 1484 1484 1484 1483 1483 1483 1483 1482 1482 1481
1450 1452 1454 1456 1458 1460 1462 1463 1464 1465 1466 1467 1468 1469 1469 1469 1470 1470 1471 1471 1472 1473 1474 1476 1477 1478 1479 1480 1481 1482 1483 1484 1485 1486 1487 1488 1488 1489 1489 1490 1490 1490 1491 1490 1490 1489 1489 1488 1487 1487 1486 1486 1485 1485 1484 1484 1483 1483 1483 1482 1482 1482 1482 1481 1481 1481 1480 1480 1479
1449 1451 1452 1454 1456 1459 1461 1462 1463 1464 1464 1465 1465 1466 1466 1467 1468 1469 1470 1471 1472 1473 1474 1475 1476 1477 1478 1479 1480 1481 1482 1484 1484 1485 1486 1487 1487 1488 1488 1489 1489 1489 1490 1489 1489 1489 1488 1487 1486 1486 1485 1485 1484 1483 1483 1482 1482 1481 1481 1481 1480 1480 1480 1480 1480 1479 1479 1479 1478
1448 1449 1451 1453 1454 1457 1459 1460 1461 1462 1462 1463 1463 1464 1464 1465 1467 1468 1469 1470 1471 1473 1474 1475 1475 1476 1477 1478 1479 1480 1482 1483 1484 1484 1485 1485 1486 1487 1487 1488 1488 1489 1489 1488 1488 1487 1487 1486 1485 1485 1484 1484 1483 1482 1481 1481 1480 1480 1479 1479 1479 1479 1479 1479 1478 1478 1477 1477 1476
1447 1448 1449 1451 1453 1455 1457 1458 1459 1459 1460 1461 1461 1462 1463 1464 1466 1467 1469 1470 1471 1472 1473 1474 1475 1476 1477 1478 1479 1480 1481 1482 1482 1483 1484 1484 1485 1486 1486 1487 1487 1487 1487 1487 1487 1486 1485 1485 1484 1484 1483 1482 1481 1481 1480 1479 1479 1479 1478 1478 1478 1477 1477 1477 1476 1476 1475 1475 1474
1445 1446 1447 1449 1450 1452 1454 1455 1456 1457 1458 1459 1460 1461 1462 1464 1465 1467 1468 1469 1471 1472 1473 1474 1474 1475 1476 1477 1478 1479 1480 1481 1481 1482 1483 1483 1484 1484 1485 1485 1486 1486 1486 1486 1486 1485 1484 1484 1483 1482 1481 1481 1480 1479 1479 1478 1477 1477 1477 1476 1476 1476 1475 1475 1475 1474 1474 1473 1473
1443 1444 1445 1447 1448 1450 1451 1453 1454 1455 1456 1457 1458 1460 1461 1463 1464 1466 1468 1469 1470 1471 1472 1473 1474 1474 1475 1476 1477 1478 1479 1480 1480 1481 1482 1482 1483 1484 1484 1484 1485 1485 1485 1485 1484 1484 1483 1482 1482 1481 1480 1479 1479 1478 1477 1476 1476 1475 1475 1475 1474 1474 1474 1474 1473 1472 1472 1471 1471
1441 1442 1443 1445 1446 1448 1449 1451 1452 1453 1454 1455 1457 1459 1460 1462 1464 1465 1467 1468 1469 1470 1471 1472 1473 1474 1474 1475 1476 1477 1478 1479 1479 1480 1480 1481 1482 1482 1483 1483 1484 1484 1484 1484 1483 1483 1482 1481 1480 1479 1479 1478 1477 1476 1475 1475 1474 1474 1474 1473 1473 1473 1472 1472 1471 1471 1470 1470 1469
1439 1440 1442 1443 1445 1447 1448 1449 1451 1452 1453 1454 1455 1457 1459 1460 1462 1464 1465 1467 1468 1469 1471 1471 1472 1473 1474 1474 1475 1476 1477 1478 1478 1479 1479 1480 1480 1481 1481 1482 1482 1483 1483 1482 1482 1481 1480 1480 1479 1478 1477 1476 1475 1475 1474 1474 1473 1473 1472 1472 1471 1471 1470 1470 1469 1469 1469 1468 1468
1436 1438 1440 1442 1444 1445 1447 1448 1449 1450 1451 1453 1454 1456 1457 1459 1461 1463 1464 1466 1468 1469 1469 1470 1471 1472 1473 1473 1474 1475 1476 1476 1477 1478 1478 1479 1479 1479 1480 1480 1481 1481 1481 1481 1480 1480 1479 1479 1478 1477 1476 1475 1474 1473 1473 1472 1472 1471 1471 1470 1470 1469 1469 1468 1468 1468 1467 1467 1466
1434 1436 1438 1440 1442 1444 1445 1446 1447 1449 1450 1451 1453 1454 1456 1458 1460 1461 1464 1465 1467 1468 1469 1469 1470 1471 1472 1472 1473 1474 1475 1475 1476 1477 1477 1478 1478 1478 1479 1479 1479 1480 1479 1479 1479 1479 1478 1477 1476 1475 1474 1474 1473 1472 1471 1471 1470 1470 1469 1469 1468 1468 1467 1467 1466 1466 1466 1465 1465
1433 1434 1436 1438 1440 1442 1444 1445 1446 1447 1449 1450 1452 1454 1455 1457 1459 1461 1462 1464 1465 1466 1467 1468 1469 1470 1470 1471 1472 1473 1474 1474 1475 1475 1476 1476 1476 1477 1477 1478 1478 1478 1478 1478 1478 1477 1476 1476 1475 1474 1473 1472 1472 1471 1470 1469 1469 1468 1468 1467 1466 1466 1466 1465 1465 1464 1464 1464 1463
1432 1433 1434 1436 1438 1440 1441 1443 1444 1446 1447 1449 1451 1453 1455 1457 1459 1460 1461 1463 1464 1465 1466 1467 1468 1469 1469 1470 1471 1472 1473 1473 1474 1474 1474 1475 1475 1475 1476 1476 1477 1477 1477 1476 1476 1476 1475 1474 1474 1473 1472 1471 1470 1470 1469 1468 1468 1467 1466 1465 1465 1464 1464 1464 1463 1463 1463 1462 1461
1431 1432 1433 1434 1436 1438 1439 1441 1443 1445 1446 1449 1450 1453 1455 1456 1458 1459 1460 1462 1463 1464 1465 1466 1467 1468 1469 1469 1470 1471 1471 1472 1472 1473 1473 1473 1474 1474 1474 1475 1475 1475 1475 1475 1475 1474 1474 1473 1472 1471 1470 1470 1469 1468 1467 1467 1466 1465 1464 1464 1463 1463 1462 1462 1462 1461 1460 1460 1459
1431 1432 1433 1434 1434 1436 1437 1439 1441 1444 1446 1448 1450 1453 1454 1456 1457 1458 1459 1460 1462 1463 1464 1465 1466 1466 1467 1468 1469 1469 1470 1471 1471 1471 1472 1472 1472 1472 1473 1473 1474 1474 1474 1474 1473 1473 1472 1472 1471 1470 1469 1469 1468 1467 1466 1465 1464 1463 1463 1462 1461 1461 1461 1460 1460 1459 1459 1458 1458
1431 1432 1432 1433 1433 1434 1435 1438 1440 1443 1445 1447 1450 1452 1454 1455 1456 1457 1458 1459 1460 1461 1462 1463 1464 1465 1466 1467 1467 1468 1469 1469 1469 1470 1470 1470 1470 1471 1471 1472 1472 1472 1472 1472 1472 1471 1471 1470 1469 1469 1468 1467 1466 1465 1464 1464 1463 1462 1461 1460 1460 1459 1459 1459 1458 1458 1457 1457 1456
1430 1432 1432 1432 1431 1432 1434 1436 1439 1442 1444 1447 1449 1451 1453 1454 1455 1456 1457 1458 1459 1460 1461 1462 1463 1464 1464 1465 1466 1467 1467 1468 1468 1468 1468 1469 1469 1469 1469 1470 1471 1471 1471 1471 1470 1470 1469 1469 1468 1468 1467 1466 1465 1464 1463 1462 1461 1460 1459 1459 1458 1458 1457 1457 1456 1456 1456 1455 1455
1429 1431 1431 1431 1430 1431 1433 1435 1438 1441 1444 1446 1448 1450 1451 1453 1454 1454 1455 1456 1458 1459 1459 1460 1461 1462 1463 1464 1464 1465 1465 1466 1466 1466 1467 1467 1467 1467 1468 1469 1469 1469 1469 1469 1469 1469 1468 1467 1467 1466 1465 1464 1463 1462 1461 1460 1459 1459 1458 1458 1457 1456 1456 1455 1455 1454 1454 1454 1454
1428 1429 1430 1430 1430 1431 1432 1435 1438 1440 1443 1445 1447 1449 1450 1451 1452 1453 1454 1455 1456 1457 1458 1459 1460 1461 1461 1462 1463 1464 1464 1464 1465 1465 1465 1465 1465 1465 1466 1467 1467 1468 1468 1468 1467 1467 1466 1466 1465 1464 1464 1463 1462 1461 1460 1459 1458 1458 1457 1456 1455 1455 1454 1454 1453 1453 1453 1452 1452
1426 1427 1428 1429 1429 1431 1433 1435 1437 1440 1442 1444 1445 1447 1449 1449 1451 1452 1453 1454 1454 1455 1457 1458 1459 1459 1460 1461 1461 1462 1462 1463 1463 1463 1463 1463 1463 1464 1464 1465 1465 1466 1466 1466 1465 1465 1465 1464 1464 1463 1462 1461 1460 1459 1459 1458 1457 1456 1455 1455 1454 1454 1453 1452 1452 1451 1451 1450 1450
1424 1425 1426 1427 1429 1431 1433 1435 1437 1439 1441 1443 1444 1445 1447 1448 1449 1450 1451 1452 1453 1454 1455 1456 1457 1458 1459 1459 1460 1460 1461 1461 1461 1461 1461 1461 1462 1462 1463 1463 1464 1464 1464 1464 1464 1464 1463 1462 1462 1461 1460 1459 1459 1458 1457 1456 1455 1455 1454 1453 1453 1452 1451 1451 1450 1450 1449 1449 1449
1421 1423 1424 1426 1428 1430 1432 1434 1436 1438 1439 1441 1443 1444 1445 1446 1447 1449 1449 1450 1451 1452 1454 1454 1455 1456 1457 1458 1458 1459 1459 1459 1459 1460 1460 1460 1460 1461 1461 1462 1462 1462 1462 1462 1462 1462 1461 1460 1460 1459 1458 1458 1457 1456 1455 1455 1454 1453 1453 1452 1451 1451 1450 1449 1449 1448 1448 1447 1447
1419 1420 1422 1424 1427 1429 1432 1434 1435 1437 1438 1439 1441 1442 1443 1444 1446 1447 1448 1449 1450 1451 1452 1453 1454 1454 1455 1456 1456 1457 1457 1458 1458 1458 1458 1458 1459 1459 1459 1460 1460 1460 1460 1460 1460 1459 1459 1459 1458 1457 1456 1456 1455 1454 1454 1453 1452 1451 1451 1450 1450 1449 1449 1448 1447 1447 1446 1445 1445
1417 1419 1421 1423 1426 1428 1430 1432 1434 1435 1437 1438 1439 1440 1441 1443 1444 1445 1446 1447 1448 1449 1450 1451 1452 1453 1454 1454 1455 1455 1456 1456 1456 1456 1456 1457 1457 1457 1458 1458 1458 1458 1458 1458 1458 1458 1457 1456 1455 1455 1454 1454 1453 1452 1452 1451 1450 1450 1449 1449 1448 1448 1447 1446 1446 1445 1444 1444 1444
1414 1416 1419 1422 1425 1427 1429 1431 1432 1434 1435 1436 1437 1439 1440 1441 1443 1444 1445 1446 1447 1448 1449 1449 1450 1451 1452 1453 1453 1454 1454 1454 1454 1455 1455 1455 1455 1455 1455 1456 1456 1456 1456 1456 1456 1455 1455 1454 1453 1453 1452 1451 1451 1450 1450 1449 1449 1448 1447 1447 1446 1446 1445 1445 1444 1444 1443 1443 1442
1412 1415 1418 1421 1424 1426 1428 1429 1430 1432 1433 1434 1435 1437 1438 1439 1441 1442 1443 1444 1445 1446 1447 1448 1449 1449 1450 1451 1452 1452 1453 1453 1453 1453 1453 1453 1453 1454 1454 1454 1454 1454 1454 1454 1454 1454 1453 1452 1451 1450 1450 1449 1449 1448 1448 1447 1447 1446 1446 1445 1445 1444 1444 1443 1443 1442 1442 1441 1440
1410 1414 1417 1420 1423 1424 1426 1427 1429 1430 1431 1432 1434 1435 1436 1438 1439 1440 1441 1442 1443 1444 1445 1446 1447 1448 1449 1449 1450 1450 1451 1451 1451 1451 1451 1451 1451 1452 1452 1452 1452 1452 1452 1452 1452 1452 1451 1450 1449 1449 1448 1447 1447 1446 1446 1445 1445 1444 1444 1444 1443 1443 1442 1442 1441 1441 1440 1440 1439
1409 1413 1416 1419 1421 1423 1424 1425 1427 1428 1429 1430 1432 1433 1435 1436 1437 1439 1439 1441 1442 1443 1444 1444 1445 1446 1447 1448 1448 1449 1449 1450 1450 1449 1449 1449 1450 1450 1450 1450 1450 1450 1450 1450 1450 1449 1449 1448 1447 1447 1446 1445 1445 1444 1444 1444 1443 1443 1442 1442 1442 1441 1441 1440 1440 1439 1439 1438 1438
1409 1412 1415 1417 1419 1421 1422 1424 1425 1426 1427 1429 1430 1431 1433 1434 1436 1437 1438 1439 1440 1441 1442 1443 1443 1444 1445 1446 1447 1447 1448 1448 1448 1448 1448 1448 1448 1449 1449 1449 1449 1448 1448 1448 1448 1448 1447 1446 1446 1445 1444 1444 1443 1443 1442 1442 1441 1441 1441 1440 1440 1440 1439 1439 1438 1438 1437 1437 1436
1408 1411 1414 1416 1418 1419 1421 1422 1423 1424 1425 1427 1429 1430 1432 1433 1434 1435 1436 1437 1438 1439 1440 1441 1442 1443 1444 1444 1445 1446 1446 1446 1446 1446 1446 1446 1447 1447 1447 1447 1446 1446 1446 1446 1446 1445 1445 1444 1444 1444 1443 1443 1442 1441 1441 1440 1440 1439 1439 1439 1439 1438 1438 1437 1437 1436 1436 1435 1434
1407 1409 1412 1414 1416 1418 1419 1420 1421 1422 1424 1426 1427 1429 1430 1432 1433 1434 1435 1436 1437 1438 1439 1439 1440 1441 1442 1443 1444 1444 1445 1445 1445 1445 1445 1445 1445 1445 1445 1445 1444 1444 1444 1444 1444 1443 1443 1443 1442 1442 1441 1441 1440 1440 1439 1439 1439 1438 1438 1437 1437 1437 1436 1436 1435 1434 1434 1433 1433
1405 1408 1411 1413 1415 1416 1418 1419 1420 1421 1423 1425 1426 1428 1429 1430 1432 1433 1434 1434 1436 1436 1437 1438 1439 1439 1440 1441 1442 1443 1443 1444 1444 1444 1444 1444 1443 1443 1443 1443 1443 1442 1442 1442 1441 1441 1441 1441 1440 1440 1440 1439 1439 1439 1438 1438 1437 1437 1436 1436 1435 1435 1434 1434 1434 1433 1432 1431 1431
1404 1407 1410 1412 1414 1415 1416 1418 1419 1421 1422 1424 1425 1427 1428 1429 1430 1431 1432 1433 1434 1435 1436 1437 1437 1438 1439 1440 1441 1441 1442 1442 1442 1442 1442 1442 1442 1441 1441 1441 1441 1440 1440 1439 1439 1439 1439 1439 1439 1439 1439 1438 1438 1437 1437 1436 1436 1435 1435 1434 1434 1433 1433 1432 1432 1431 1430 1430 1429